Location: Olsztyn
(53.7767°N, 20.4765°E)
Time: 18:28:56
(UTC+02:00)

A-11 Canister half - Pass Details

Date: 21 January 2022
Orbit: 1513 x 1686 km, 47.2° (Epoch: 24 May)

Event Time Altitude Azimuth Distance (km) Brightness Sun altitude
Rises 19:48:43 0° 254° (WSW) 4,701 12.4 -33.3°
Reaches altitude 10° 19:51:50 10° 251° (WSW) 3,703 11.6 -33.8°
Enters shadow 20:00:31 58° 184° (S) 1,728 9.0 -35.0°
